{"data":{"norad_id":67740,"epoch":"2026-09-19T09:26:15.386496Z","epoch_age_seconds":162033,"freshness":"FRESH","line1":"1 67740U 26026V   26262.39323364  .00010512  00000+0  32748-3 0  9996","line2":"2 67740  97.2865 314.2837 0000583  56.6610 303.4689 15.33446902 33816","mean_motion":15.33446902,"eccentricity":5.83e-5,"inclination_deg":97.2865,"raan_deg":314.2837,"arg_perigee_deg":56.661,"mean_anomaly_deg":303.4689,"bstar":0.00032748,"rev_number":3381,"period_min":93.906088180939,"perigee_km":465.1385292459,"apogee_km":465.9365016944,"semimajor_km":6843.6745154702,"source":"CELESTRAK","updated_at":"2026-09-20T09:00:43.660389Z"}}